Year,Month,Day,Hour,Minute,Value (Times are PST for temperature in C)
2013,12,02,12,48,5.90
2013,12,02,12,49,5.90
2013,12,02,12,50,5.80
2013,12,02,12,51,5.80
2013,12,02,12,52,5.80
2013,12,02,12,53,5.80
2013,12,02,12,54,5.90
2013,12,02,12,55,5.90
2013,12,02,12,56,5.90
2013,12,02,12,57,5.80
2013,12,02,12,58,5.70
2013,12,02,12,59,5.70
2013,12,02,13,00,5.80
2013,12,02,13,01,5.80
2013,12,02,13,02,5.70
2013,12,02,13,03,5.70
2013,12,02,13,04,5.80
2013,12,02,13,05,5.80
2013,12,02,13,06,5.80
2013,12,02,13,07,5.90
2013,12,02,13,08,5.80
2013,12,02,13,09,5.80
2013,12,02,13,10,5.70
2013,12,02,13,11,5.70
2013,12,02,13,12,5.70
2013,12,02,13,13,5.70
2013,12,02,13,14,5.70
2013,12,02,13,15,5.70
2013,12,02,13,16,5.70
2013,12,02,13,17,5.70
2013,12,02,13,18,5.70
2013,12,02,13,19,5.70
2013,12,02,13,20,5.80
2013,12,02,13,21,5.90
2013,12,02,13,22,5.90
2013,12,02,13,23,6.00
2013,12,02,13,24,6.00
2013,12,02,13,25,6.00
2013,12,02,13,26,6.00
2013,12,02,13,27,6.00
2013,12,02,13,28,6.10
2013,12,02,13,29,6.10
2013,12,02,13,30,6.20
2013,12,02,13,31,6.20
2013,12,02,13,32,6.20
2013,12,02,13,33,6.30
2013,12,02,13,34,6.30
2013,12,02,13,35,6.40
2013,12,02,13,36,6.40
2013,12,02,13,37,6.50
2013,12,02,13,38,6.60
2013,12,02,13,39,6.60
2013,12,02,13,40,6.60
2013,12,02,13,41,6.60
2013,12,02,13,42,6.60
2013,12,02,13,43,6.60
2013,12,02,13,44,6.60
2013,12,02,13,45,6.60
2013,12,02,13,46,6.70
2013,12,02,13,47,6.80
2013,12,02,13,48,6.80
2013,12,02,13,49,6.80
2013,12,02,13,50,6.80
2013,12,02,13,51,6.90
2013,12,02,13,52,6.90
2013,12,02,13,53,7.00
2013,12,02,13,54,7.00
2013,12,02,13,55,7.00
2013,12,02,13,56,7.10
2013,12,02,13,57,7.10
2013,12,02,13,58,7.20
2013,12,02,13,59,7.20
2013,12,02,14,00,7.20
2013,12,02,14,01,7.20
2013,12,02,14,02,7.10
2013,12,02,14,03,7.00
2013,12,02,14,04,6.80
2013,12,02,14,05,6.80
2013,12,02,14,06,6.60
2013,12,02,14,07,6.60
2013,12,02,14,08,6.60
2013,12,02,14,09,6.60
2013,12,02,14,10,6.50
2013,12,02,14,11,6.40
2013,12,02,14,12,6.30
2013,12,02,14,13,6.20
2013,12,02,14,14,6.20
2013,12,02,14,15,6.20
2013,12,02,14,16,6.20
2013,12,02,14,17,6.20
2013,12,02,14,18,6.20
2013,12,02,14,19,6.20
2013,12,02,14,20,6.20
2013,12,02,14,21,6.10
2013,12,02,14,22,6.10
2013,12,02,14,23,6.10
2013,12,02,14,24,6.00
2013,12,02,14,25,6.00
2013,12,02,14,26,6.00
2013,12,02,14,27,6.00
2013,12,02,14,28,6.00
2013,12,02,14,29,5.90
2013,12,02,14,30,5.90
2013,12,02,14,31,5.90
2013,12,02,14,32,5.90
2013,12,02,14,33,5.90
2013,12,02,14,34,5.90
2013,12,02,14,35,5.90
2013,12,02,14,36,5.90
2013,12,02,14,37,5.90
2013,12,02,14,38,5.90
2013,12,02,14,39,5.80
2013,12,02,14,40,5.80
2013,12,02,14,41,5.80
2013,12,02,14,42,5.70
2013,12,02,14,43,5.70
2013,12,02,14,44,5.70
2013,12,02,14,45,5.70
2013,12,02,14,46,5.70
2013,12,02,14,47,5.70
2013,12,02,14,48,5.70
2013,12,02,14,49,5.60
2013,12,02,14,50,5.60
2013,12,02,14,51,5.50
2013,12,02,14,52,5.50
2013,12,02,14,53,5.40
2013,12,02,14,54,5.40
2013,12,02,14,55,5.40
2013,12,02,14,56,5.30
2013,12,02,14,57,5.30
2013,12,02,14,58,5.30
2013,12,02,14,59,5.30
2013,12,02,15,00,5.30
2013,12,02,15,01,5.30
2013,12,02,15,02,5.30
2013,12,02,15,03,5.20
2013,12,02,15,04,5.20
2013,12,02,15,05,5.20
2013,12,02,15,06,5.20
2013,12,02,15,07,5.20
2013,12,02,15,08,5.20
2013,12,02,15,09,5.20
2013,12,02,15,10,5.20
2013,12,02,15,11,5.20
2013,12,02,15,12,5.20
2013,12,02,15,13,5.20
2013,12,02,15,14,5.20
2013,12,02,15,15,5.20
2013,12,02,15,16,5.20
2013,12,02,15,17,5.20
2013,12,02,15,18,5.30
2013,12,02,15,19,5.30
2013,12,02,15,20,5.20
2013,12,02,15,21,5.20
2013,12,02,15,22,5.20
2013,12,02,15,23,5.20
2013,12,02,15,24,5.20
2013,12,02,15,25,5.10
2013,12,02,15,26,5.10
2013,12,02,15,27,5.10
2013,12,02,15,28,5.10
2013,12,02,15,29,5.10
2013,12,02,15,30,5.10
2013,12,02,15,31,5.10
2013,12,02,15,32,5.10
2013,12,02,15,33,5.10
2013,12,02,15,34,5.10
2013,12,02,15,35,5.10
2013,12,02,15,36,5.10
2013,12,02,15,37,5.10
2013,12,02,15,38,5.00
2013,12,02,15,39,4.90
2013,12,02,15,40,4.90
2013,12,02,15,41,4.90
2013,12,02,15,42,4.90
2013,12,02,15,43,4.90
2013,12,02,15,44,4.90
2013,12,02,15,45,4.90
2013,12,02,15,46,4.90
2013,12,02,15,47,4.90
2013,12,02,15,48,4.80
2013,12,02,15,49,4.80
2013,12,02,15,50,4.80
2013,12,02,15,51,4.80
2013,12,02,15,52,4.70
2013,12,02,15,53,4.70
2013,12,02,15,54,4.70
2013,12,02,15,55,4.60
2013,12,02,15,56,4.60
2013,12,02,15,57,4.60
2013,12,02,15,58,4.50
2013,12,02,15,59,4.50
2013,12,02,16,00,4.40
2013,12,02,16,01,4.30
2013,12,02,16,02,4.30
2013,12,02,16,03,4.20
2013,12,02,16,04,4.20
2013,12,02,16,05,4.10
2013,12,02,16,06,4.00
2013,12,02,16,07,4.00
2013,12,02,16,08,3.90
2013,12,02,16,09,3.80
2013,12,02,16,10,3.80
2013,12,02,16,11,3.60
2013,12,02,16,12,3.60
2013,12,02,16,13,3.50
2013,12,02,16,14,3.40
2013,12,02,16,15,3.30
2013,12,02,16,16,3.30
2013,12,02,16,17,3.20
2013,12,02,16,18,3.20
2013,12,02,16,19,3.10
2013,12,02,16,20,3.10
2013,12,02,16,21,3.00
2013,12,02,16,22,2.90
2013,12,02,16,23,2.90
2013,12,02,16,24,2.80
2013,12,02,16,25,2.80
2013,12,02,16,26,2.80
2013,12,02,16,27,2.70
2013,12,02,16,28,2.70
2013,12,02,16,29,2.70
2013,12,02,16,30,2.70
2013,12,02,16,31,2.60
2013,12,02,16,32,2.60
2013,12,02,16,33,2.60
2013,12,02,16,34,2.50
2013,12,02,16,35,2.50
2013,12,02,16,36,2.50
2013,12,02,16,37,2.50
2013,12,02,16,38,2.40
2013,12,02,16,39,2.40
2013,12,02,16,40,2.40
2013,12,02,16,41,2.30
2013,12,02,16,42,2.30
2013,12,02,16,43,2.30
2013,12,02,16,44,2.30
2013,12,02,16,45,2.20
2013,12,02,16,46,2.20
2013,12,02,16,47,2.20
2013,12,02,16,48,2.20
2013,12,02,16,49,2.20
2013,12,02,16,50,2.20
2013,12,02,16,51,2.20
2013,12,02,16,52,2.20
2013,12,02,16,53,2.20
2013,12,02,16,54,2.20
2013,12,02,16,55,2.20
2013,12,02,16,56,2.20
2013,12,02,16,57,2.20
2013,12,02,16,58,2.10
2013,12,02,16,59,2.10
2013,12,02,17,00,2.10
2013,12,02,17,01,2.10
2013,12,02,17,02,2.10
2013,12,02,17,03,2.10
2013,12,02,17,04,2.00
2013,12,02,17,05,2.00
2013,12,02,17,06,2.00
2013,12,02,17,07,2.00
2013,12,02,17,08,2.00
2013,12,02,17,09,2.00
2013,12,02,17,10,2.00
2013,12,02,17,11,2.00
2013,12,02,17,12,1.90
2013,12,02,17,13,1.90
2013,12,02,17,14,1.90
2013,12,02,17,15,1.90
2013,12,02,17,16,1.80
2013,12,02,17,17,1.80
2013,12,02,17,18,1.80
2013,12,02,17,19,1.80
2013,12,02,17,20,1.80
2013,12,02,17,21,1.80
2013,12,02,17,22,1.70
2013,12,02,17,23,1.70
2013,12,02,17,24,1.70
2013,12,02,17,25,1.70
2013,12,02,17,26,1.60
2013,12,02,17,27,1.60
2013,12,02,17,28,1.60
2013,12,02,17,29,1.60
2013,12,02,17,30,1.60
2013,12,02,17,31,1.60
2013,12,02,17,32,1.60
2013,12,02,17,33,1.60
2013,12,02,17,34,1.60
2013,12,02,17,35,1.60
2013,12,02,17,36,1.60
2013,12,02,17,37,1.60
2013,12,02,17,38,1.60
2013,12,02,17,39,1.60
2013,12,02,17,40,1.60
2013,12,02,17,41,1.60
2013,12,02,17,42,1.60
2013,12,02,17,43,1.70
2013,12,02,17,44,1.70
2013,12,02,17,45,1.70
2013,12,02,17,46,1.70
2013,12,02,17,47,1.70
2013,12,02,17,48,1.70
2013,12,02,17,49,1.70
2013,12,02,17,50,1.70
2013,12,02,17,51,1.70
2013,12,02,17,52,1.60
2013,12,02,17,53,1.60
2013,12,02,17,54,1.60
2013,12,02,17,55,1.60
2013,12,02,17,56,1.60
2013,12,02,17,57,1.60
2013,12,02,17,58,1.60
2013,12,02,17,59,1.60
2013,12,02,18,00,1.60
2013,12,02,18,01,1.60
2013,12,02,18,02,1.60
2013,12,02,18,03,1.60
2013,12,02,18,04,1.60
2013,12,02,18,05,1.60
2013,12,02,18,06,1.60
2013,12,02,18,07,1.60
2013,12,02,18,08,1.60
2013,12,02,18,09,1.60
2013,12,02,18,10,1.60
2013,12,02,18,11,1.60
2013,12,02,18,12,1.60
2013,12,02,18,13,1.60
2013,12,02,18,14,1.60
2013,12,02,18,15,1.60
2013,12,02,18,16,1.60
2013,12,02,18,17,1.60
2013,12,02,18,18,1.60
2013,12,02,18,19,1.60
2013,12,02,18,20,1.60
2013,12,02,18,21,1.70
2013,12,02,18,22,1.70
2013,12,02,18,23,1.80
2013,12,02,18,24,1.80
2013,12,02,18,25,1.80
2013,12,02,18,26,1.90
2013,12,02,18,27,1.90
2013,12,02,18,28,2.00
2013,12,02,18,29,2.00
2013,12,02,18,30,2.00
2013,12,02,18,31,2.00
2013,12,02,18,32,2.00
2013,12,02,18,33,2.00
2013,12,02,18,34,2.00
2013,12,02,18,35,2.00
2013,12,02,18,36,1.90
2013,12,02,18,37,1.90
2013,12,02,18,38,1.90
2013,12,02,18,39,1.90
2013,12,02,18,40,1.80
2013,12,02,18,41,1.80
2013,12,02,18,42,1.80
2013,12,02,18,43,1.80
2013,12,02,18,44,1.70
2013,12,02,18,45,1.70
2013,12,02,18,46,1.60
2013,12,02,18,47,1.60
2013,12,02,18,48,1.50
2013,12,02,18,49,1.50
2013,12,02,18,50,1.40
2013,12,02,18,51,1.40
2013,12,02,18,52,1.40
2013,12,02,18,53,1.40
2013,12,02,18,54,1.50
2013,12,02,18,55,1.50
2013,12,02,18,56,1.60
2013,12,02,18,57,1.60
2013,12,02,18,58,1.70
2013,12,02,18,59,1.70
2013,12,02,19,00,1.80
2013,12,02,19,01,1.80
2013,12,02,19,02,1.90
2013,12,02,19,03,1.90
2013,12,02,19,04,2.00
2013,12,02,19,05,2.10
2013,12,02,19,06,2.10
2013,12,02,19,07,2.20
2013,12,02,19,08,2.20
2013,12,02,19,09,2.20
2013,12,02,19,10,2.20
2013,12,02,19,11,2.30
2013,12,02,19,12,2.30
2013,12,02,19,13,2.30
2013,12,02,19,14,2.30
2013,12,02,19,15,2.30
2013,12,02,19,16,2.20
2013,12,02,19,17,2.20
2013,12,02,19,18,2.20
2013,12,02,19,19,2.20
2013,12,02,19,20,2.20
2013,12,02,19,21,2.20
2013,12,02,19,22,2.10
2013,12,02,19,23,2.10
2013,12,02,19,24,2.10
2013,12,02,19,25,2.00
2013,12,02,19,26,2.00
2013,12,02,19,27,2.00
2013,12,02,19,28,1.90
2013,12,02,19,29,1.90
2013,12,02,19,30,1.90
2013,12,02,19,31,1.90
2013,12,02,19,32,1.90
2013,12,02,19,33,1.80
2013,12,02,19,34,1.80
2013,12,02,19,35,1.80
2013,12,02,19,36,1.80
2013,12,02,19,37,1.80
2013,12,02,19,38,1.80
2013,12,02,19,39,1.80
2013,12,02,19,40,1.80
2013,12,02,19,41,1.80
2013,12,02,19,42,1.80
2013,12,02,19,43,1.80
2013,12,02,19,44,1.80
2013,12,02,19,45,1.80
2013,12,02,19,46,1.80
2013,12,02,19,47,1.80
2013,12,02,19,48,1.80
2013,12,02,19,49,1.80
2013,12,02,19,50,1.80
2013,12,02,19,51,1.80
2013,12,02,19,52,1.80
2013,12,02,19,53,1.80
2013,12,02,19,54,1.80
2013,12,02,19,55,1.80
2013,12,02,19,56,1.70
2013,12,02,19,57,1.70
2013,12,02,19,58,1.70
2013,12,02,19,59,1.70
2013,12,02,20,00,1.70
2013,12,02,20,01,1.70
2013,12,02,20,02,1.70
2013,12,02,20,03,1.70
2013,12,02,20,04,1.70
2013,12,02,20,05,1.70
2013,12,02,20,06,1.70
2013,12,02,20,07,1.70
2013,12,02,20,08,1.70
2013,12,02,20,09,1.70
2013,12,02,20,10,1.70
2013,12,02,20,11,1.60
2013,12,02,20,12,1.60
2013,12,02,20,13,1.60
2013,12,02,20,14,1.60
2013,12,02,20,15,1.60
2013,12,02,20,16,1.60
2013,12,02,20,17,1.60
2013,12,02,20,18,1.60
2013,12,02,20,19,1.60
2013,12,02,20,20,1.60
2013,12,02,20,21,1.60
2013,12,02,20,22,1.60
2013,12,02,20,23,1.60
2013,12,02,20,24,1.60
2013,12,02,20,25,1.60
2013,12,02,20,26,1.60
2013,12,02,20,27,1.50
2013,12,02,20,28,1.50
2013,12,02,20,29,1.50
2013,12,02,20,30,1.50
2013,12,02,20,31,1.50
2013,12,02,20,32,1.50
2013,12,02,20,33,1.50
2013,12,02,20,34,1.40
2013,12,02,20,35,1.40
2013,12,02,20,36,1.40
2013,12,02,20,37,1.40
2013,12,02,20,38,1.40
2013,12,02,20,39,1.40
2013,12,02,20,40,1.40
2013,12,02,20,41,1.40
2013,12,02,20,42,1.30
2013,12,02,20,43,1.30
2013,12,02,20,44,1.30
2013,12,02,20,45,1.30
2013,12,02,20,46,1.30
2013,12,02,20,47,1.30
2013,12,02,20,48,1.30
2013,12,02,20,49,1.30
2013,12,02,20,50,1.30
2013,12,02,20,51,1.30
2013,12,02,20,52,1.30
2013,12,02,20,53,1.20
2013,12,02,20,54,1.20
2013,12,02,20,55,1.20
2013,12,02,20,56,1.20
2013,12,02,20,57,1.20
2013,12,02,20,58,1.20
2013,12,02,20,59,1.20
2013,12,02,21,00,1.20
2013,12,02,21,01,1.20
2013,12,02,21,02,1.20
2013,12,02,21,03,1.20
2013,12,02,21,04,1.20
2013,12,02,21,05,1.20
2013,12,02,21,06,1.20
2013,12,02,21,07,1.20
2013,12,02,21,08,1.20
2013,12,02,21,09,1.20
2013,12,02,21,10,1.20
2013,12,02,21,11,1.20
2013,12,02,21,12,1.20
2013,12,02,21,13,1.30
2013,12,02,21,14,1.30
2013,12,02,21,15,1.30
2013,12,02,21,16,1.30
2013,12,02,21,17,1.30
2013,12,02,21,18,1.30
2013,12,02,21,19,1.30
2013,12,02,21,20,1.30
2013,12,02,21,21,1.30
2013,12,02,21,22,1.30
2013,12,02,21,23,1.30
2013,12,02,21,24,1.30
2013,12,02,21,25,1.30
2013,12,02,21,26,1.30
2013,12,02,21,27,1.30
2013,12,02,21,28,1.20
2013,12,02,21,29,1.20
2013,12,02,21,30,1.20
2013,12,02,21,31,1.20
2013,12,02,21,32,1.20
2013,12,02,21,33,1.20
2013,12,02,21,34,1.20
2013,12,02,21,35,1.20
2013,12,02,21,36,1.20
2013,12,02,21,37,1.20
2013,12,02,21,38,1.20
2013,12,02,21,39,1.20
2013,12,02,21,40,1.10
2013,12,02,21,41,1.10
2013,12,02,21,42,1.10
2013,12,02,21,43,1.10
2013,12,02,21,44,1.10
2013,12,02,21,45,1.10
2013,12,02,21,46,1.10
2013,12,02,21,47,1.10
2013,12,02,21,48,1.10
2013,12,02,21,49,1.10
2013,12,02,21,50,1.10
2013,12,02,21,51,1.10
2013,12,02,21,52,1.10
2013,12,02,21,53,1.10
2013,12,02,21,54,1.10
2013,12,02,21,55,1.10
2013,12,02,21,56,1.10
2013,12,02,21,57,1.10
2013,12,02,21,58,1.10
2013,12,02,21,59,1.10
2013,12,02,22,00,1.10
2013,12,02,22,01,1.10
2013,12,02,22,02,1.10
2013,12,02,22,03,1.10
2013,12,02,22,04,1.00
2013,12,02,22,05,1.00
2013,12,02,22,06,1.00
2013,12,02,22,07,1.00
2013,12,02,22,08,1.00
2013,12,02,22,09,1.00
2013,12,02,22,10,0.90
2013,12,02,22,11,0.90
2013,12,02,22,12,0.90
2013,12,02,22,13,0.90
2013,12,02,22,14,0.90
2013,12,02,22,15,0.80
2013,12,02,22,16,0.80
2013,12,02,22,17,0.80
2013,12,02,22,18,0.80
2013,12,02,22,19,0.80
2013,12,02,22,20,0.70
2013,12,02,22,21,0.70
2013,12,02,22,22,0.70
2013,12,02,22,23,0.60
2013,12,02,22,24,0.60
2013,12,02,22,25,0.60
2013,12,02,22,26,0.50
2013,12,02,22,27,0.50
2013,12,02,22,28,0.50
2013,12,02,22,29,0.40
2013,12,02,22,30,0.40
2013,12,02,22,31,0.40
2013,12,02,22,32,0.40
2013,12,02,22,33,0.40
2013,12,02,22,34,0.40
2013,12,02,22,35,0.30
2013,12,02,22,36,0.30
2013,12,02,22,37,0.20
2013,12,02,22,38,0.20
2013,12,02,22,39,0.10
2013,12,02,22,40,0.10
2013,12,02,22,41,0.00
2013,12,02,22,42,-0.10
2013,12,02,22,43,-0.10
2013,12,02,22,44,-0.10
2013,12,02,22,45,-0.10
2013,12,02,22,46,-0.20
2013,12,02,22,47,-0.20
2013,12,02,22,48,-0.20
2013,12,02,22,49,-0.30
2013,12,02,22,50,-0.30
2013,12,02,22,51,-0.30
2013,12,02,22,52,-0.30
2013,12,02,22,53,-0.30
2013,12,02,22,54,-0.40
2013,12,02,22,55,-0.40
2013,12,02,22,56,-0.40
2013,12,02,22,57,-0.40
2013,12,02,22,58,-0.40
2013,12,02,22,59,-0.40
2013,12,02,23,00,-0.40
2013,12,02,23,01,-0.40
2013,12,02,23,02,-0.40
2013,12,02,23,03,-0.40
2013,12,02,23,04,-0.40
2013,12,02,23,05,-0.40
2013,12,02,23,06,-0.40
2013,12,02,23,07,-0.40
2013,12,02,23,08,-0.40
2013,12,02,23,09,-0.40
2013,12,02,23,10,-0.30
2013,12,02,23,11,-0.30
2013,12,02,23,12,-0.20
2013,12,02,23,13,-0.10
2013,12,02,23,14,-0.10
2013,12,02,23,15,-0.10
2013,12,02,23,16,-0.10
2013,12,02,23,17,0.10
2013,12,02,23,18,0.10
2013,12,02,23,19,0.10
2013,12,02,23,20,0.10
2013,12,02,23,21,0.10
2013,12,02,23,22,0.10
2013,12,02,23,23,0.10
2013,12,02,23,24,0.20
2013,12,02,23,25,0.20
2013,12,02,23,26,0.20
2013,12,02,23,27,0.20
2013,12,02,23,28,0.20
2013,12,02,23,29,0.20
2013,12,02,23,30,0.30
2013,12,02,23,31,0.30
2013,12,02,23,32,0.30
2013,12,02,23,33,0.30
2013,12,02,23,34,0.30
2013,12,02,23,35,0.30
2013,12,02,23,36,0.30
2013,12,02,23,37,0.30
2013,12,02,23,38,0.30
2013,12,02,23,39,0.30
2013,12,02,23,40,0.30
2013,12,02,23,41,0.30
2013,12,02,23,42,0.30
2013,12,02,23,43,0.30
2013,12,02,23,44,0.30
2013,12,02,23,45,0.30
2013,12,02,23,46,0.30
2013,12,02,23,47,0.30
2013,12,02,23,48,0.30
2013,12,02,23,49,0.30
2013,12,02,23,50,0.30
2013,12,02,23,51,0.40
2013,12,02,23,52,0.40
2013,12,02,23,53,0.40
2013,12,02,23,54,0.40
2013,12,02,23,55,0.40
2013,12,02,23,56,0.40
2013,12,02,23,57,0.40
2013,12,02,23,58,0.40
2013,12,02,23,59,0.40
